Torna al catalogo

CARBONITE 1

AttivoScienzaSSO
NORAD 40718·PAYLOAD·🇬🇧 United Kingdom

Lanciato Jul 10, 2015 da Satish Dhawan Space Centre

Loading…

Prossimi Passaggi (prossime 24 ore)

TLE

AggiornatoSource: Space-Track

Epoca: Sep 14, 2026, 14:35 UTC

1 40718U 15032D   26257.60806338  .00001077  00000-0  13589-3 0  9991
2 40718  97.6559  71.9792 0014730   6.9016 353.2399 14.83821631602600

Traccia CARBONITE 1 in tempo reale con AllMySat

Download on the App Store